Wind_Speed
7 8 8 9 9 9 9 9 7 7 7 7 7 6 6 5 6 6 6 6 5 5 5 5 4 4 3 2 3 7 13 14 14 16 13 12 11 6 6 4 4 5 8 9 10 10 9 9 8 7 6 4 1 1 1 2 2 2 4 4 4 5 4 4 6 4 5 8 9 7 7 11 8 6 8 9 16 14 13 15 13 15 15 13 11 10 11 13
7 7 8 9 10 9 9 9 8 7 7 7 6 6 6 5 6 6 6 6 5 5 5 5 5 4 3 1 2 10 14 14 16 16 12 13 12 6 5 3 3 4 7 6 7 9 9 8 8 8 6 3 1 0 2 1 1 2 3 4 4 4 2 3 4 4 4 9 10 7 8 9 5 1 5 6 9 11 12 11 9 12 12 12 13 13 13 14
7 7 8 10 11 11 10 9 8 7 7 7 6 5 5 5 6 5 5 5 5 5 5 5 4 3 2 1 4 9 11 10 11 10 10 14 12 7 5 3 3 3 6 5 6 6 7 9 10 9 6 3 1 1 3 0 1 1 2 5 3 5 6 5 3 4 5 11 13 9 9 11 9 6 4 10 11 12 10 7 7 8 9 10 13 15 15 15
8 8 9 11 12 11 10 9 8 7 7 6 5 5 5 5 5 5 5 5 5 5 5 4 2 2 2 3 6 9 7 6 5 7 9 11 10 8 6 3 3 4 6 6 6 6 8 10 10 8 6 4 3 3 3 1 1 2 1 3 5 5 7 5 3 4 5 8 12 11 11 11 8 10 6 8 9 9 8 7 7 6 7 9 11 14 15 16
9 9 10 12 12 11 10 9 8 7 6 6 5 5 5 5 5 5 4 4 5 5 3 1 1 1 3 5 6 5 4 4 3 6 9 9 7 7 6 3 4 6 7 7 6 7 8 9 9 7 6 5 6 5 3 2 1 3 1 2 5 4 6 5 3 4 4 8 12 11 10 7 6 12 12 7 8 5 5 7 7 6 7 7 9 12 13 15
10 11 11 12 12 11 10 9 8 7 7 6 5 5 5 5 4 4 4 4 5 2 1 1 1 2 4 5 4 1 2 1 3 6 8 7 6 6 4 3 6 8 8 7 6 6 7 8 9 7 6 6 9 7 4 2 2 3 2 3 4 4 7 5 4 3 3 10 10 8 9 8 10 11 13 15 12 7 7 7 7 8 7 7 9 11 13 14
10 11 12 13 13 11 9 8 8 7 7 7 6 5 5 5 4 4 3 4 3 1 3 3 2 3 5 6 5 3 3 4 5 7 7 7 5 4 3 3 6 8 7 7 7 7 7 9 9 7 8 6 9 8 5 3 1 4 5 2 3 6 7 4 5 6 7 12 11 10 11 8 11 10 9 14 12 8 9 7 7 8 7 9 10 12 13 15
10 12 13 13 12 10 8 8 8 8 8 7 7 6 6 6 5 4 4 3 2 2 4 3 3 4 8 7 4 5 6 4 7 8 7 6 4 3 3 3 5 6 6 7 6 7 8 10 8 7 8 5 6 7 5 4 2 4 5 3 2 5 6 5 6 10 13 12 12 15 14 12 14 13 10 11 9 8 8 7 8 7 8 10 11 13 14 15
11 12 13 12 10 9 9 8 8 8 8 7 7 7 7 6 4 3 3 2 3 3 4 3 4 7 9 4 2 3 4 4 8 8 6 5 4 3 2 4 5 6 7 6 4 5 6 7 6 4 5 4 5 7 6 7 4 4 5 3 4 5 4 7 8 11 12 9 13 18 15 13 13 11 10 8 7 7 7 7 7 7 10 10 11 14 15 15
12 13 13 11 10 9 9 9 8 8 8 8 7 6 6 3 2 3 4 5 4 4 5 5 5 8 7 1 2 2 3 5 8 7 5 6 5 4 4 6 6 7 8 5 3 3 3 5 5 3 4 4 5 5 4 6 3 5 6 4 5 5 2 5 9 11 10 8 13 17 12 9 5 3 6 6 6 7 6 7 7 8 10 10 11 13 14 15
13 13 12 10 10 9 9 9 9 9 8 8 6 4 4 4 4 4 4 4 5 6 7 7 7 8 4 2 1 3 4 6 7 6 4 5 4 4 5 7 7 8 7 5 3 2 4 7 7 3 2 5 7 4 2 2 3 5 7 6 4 3 3 5 9 11 8 6 13 18 14 8 8 5 6 7 6 6 7 8 8 9 9 9 10 11 12 14
13 12 11 10 10 10 9 9 9 9 8 6 3 3 4 4 4 5 6 4 6 10 9 9 10 8 6 7 5 4 4 5 7 6 5 6 7 7 6 8 7 8 8 6 3 4 8 10 7 3 1 5 8 5 4 3 3 6 7 6 5 3 5 5 6 8 5 7 12 15 11 6 9 7 8 8 7 7 8 8 8 8 7 7 8 9 11 13
12 11 11 10 10 10 9 10 9 8 7 3 4 6 6 5 4 6 8 8 10 11 10 11 10 5 4 6 5 4 4 5 5 4 4 6 8 8 7 8 7 6 7 7 6 7 11 8 5 5 2 3 5 2 5 4 3 7 4 4 6 5 7 3 3 6 5 9 12 7 4 2 7 6 7 7 6 6 8 8 7 6 6 6 7 7 9 12
11 10 10 11 10 10 10 10 9 7 4 3 7 8 9 8 8 9 10 11 11 11 10 11 8 5 5 4 3 4 6 6 5 5 5 5 6 7 7 8 7 4 4 8 10 9 10 8 7 7 2 2 3 2 6 5 2 6 4 4 6 6 6 4 2 5 6 7 8 4 5 4 6 5 5 5 4 5 8 7 6 6 5 6 7 7 8 11
10 10 10 11 10 10 10 9 8 5 2 7 8 9 9 9 10 12 12 11 10 10 10 8 4 4 6 4 2 4 7 7 9 10 7 5 5 5 7 9 9 5 6 9 11 11 9 9 8 5 2 2 3 5 6 5 2 4 4 5 7 6 5 5 2 2 4 5 4 5 4 4 6 4 4 3 4 6 7 7 5 6 6 6 6 7 7 9
9 9 10 10 10 10 10 9 6 3 6 8 9 9 9 9 11 12 12 11 10 9 7 4 2 3 5 4 2 4 7 7 9 10 9 6 5 6 8 10 9 7 9 10 11 11 8 7 4 2 2 2 4 6 5 4 4 3 4 4 7 7 5 5 2 2 1 6 3 2 3 4 4 5 5 4 5 7 7 6 5 6 6 6 6 6 6 7
9 9 9 8 8 9 10 7 5 7 8 9 9 9 9 9 10 10 11 10 9 8 6 5 5 4 4 3 2 3 5 6 7 9 9 8 6 6 6 6 6 8 10 9 8 6 5 4 1 0 2 2 2 4 5 5 5 5 5 3 3 5 5 5 4 2 1 5 2 3 5 5 5 6 5 4 4 6 7 6 5 5 5 6 6 5 6 6
9 9 8 6 6 8 8 6 7 8 9 9 8 8 11 11 10 11 9 7 7 7 7 6 3 2 3 2 2 2 3 5 8 9 8 8 7 6 6 5 5 7 9 6 4 2 2 2 1 2 3 2 4 6 6 3 4 6 7 5 3 4 5 4 4 3 1 4 4 6 7 6 7 6 5 5 4 6 7 5 5 5 5 5 5 5 5 5
9 8 6 5 6 7 7 6 7 8 8 9 10 11 13 12 11 13 15 10 4 2 3 3 3 1 4 3 2 3 2 3 6 9 9 7 6 7 7 6 4 5 7 5 2 1 1 2 2 4 6 6 7 7 3 2 2 5 7 5 5 5 5 3 4 3 1 4 5 5 7 7 7 6 5 5 4 5 6 5 4 4 4 5 4 4 4 5
9 6 4 5 5 7 7 7 8 9 8 10 11 8 7 5 5 7 13 12 5 2 3 3 2 5 6 4 2 3 5 5 6 10 12 10 5 4 5 4 3 4 3 3 4 2 1 4 6 5 4 6 6 2 2 4 2 3 6 4 5 6 3 3 4 4 1 2 4 4 8 9 6 5 5 4 4 5 5 4 4 4 3 4 4 4 4 4
7 5 4 4 5 6 7 8 9 10 9 9 6 1 0 0 1 2 3 6 5 3 5 4 3 7 6 3 4 3 2 6 7 11 13 10 3 1 2 1 5 5 1 1 3 2 2 6 5 1 2 1 2 3 3 2 2 3 5 5 5 5 2 3 3 3 2 2 3 6 8 7 5 5 4 3 4 3 3 4 4 4 4 3 4 4 4 3
5 4 4 4 5 7 8 9 10 9 6 2 1 1 2 1 4 6 3 5 5 5 5 3 3 6 4 3 7 4 0 3 6 9 12 10 3 0 1 2 5 4 3 2 3 3 5 5 3 4 3 2 4 3 3 2 3 3 4 5 5 4 4 3 2 4 2 2 4 7 5 4 4 3 3 2 2 3 2 3 3 3 4 4 4 4 3 3
4 4 3 3 6 7 9 9 9 5 3 2 4 5 5 6 8 6 2 4 5 4 4 4 4 5 4 4 8 6 2 3 3 6 13 10 2 1 1 4 4 4 4 5 5 5 5 2 4 3 0 4 5 3 4 4 4 4 4 5 4 5 4 2 2 4 3 2 4 9 5 2 4 3 3 3 2 4 3 3 3 2 3 3 4 3 3 3
4 4 3 4 6 8 9 9 7 3 6 7 10 9 8 9 7 3 1 3 4 3 3 3 2 4 4 3 7 5 4 3 2 4 12 9 1 1 0 3 4 6 4 2 4 3 2 3 3 1 1 3 5 6 6 6 5 4 5 6 3 6 4 1 5 5 3 4 6 8 4 3 7 7 5 4 4 4 4 4 4 2 3 3 3 3 3 3
4 4 4 5 7 8 9 8 5 4 7 8 10 10 8 7 3 2 1 2 3 2 1 1 1 3 3 3 8 4 3 3 3 3 8 7 2 1 2 2 1 4 4 2 3 2 3 3 0 4 4 4 6 7 6 6 6 5 6 7 4 6 5 4 7 6 2 3 7 7 6 4 6 8 7 6 5 6 5 5 5 4 5 4 4 4 3 3
3 4 4 5 6 9 9 5 5 6 5 5 8 8 5 4 3 2 0 1 2 1 0 1 1 3 2 5 7 2 2 2 2 3 4 5 3 1 2 1 1 2 4 3 2 1 2 2 2 4 6 6 6 6 3 3 6 5 3 4 4 5 7 7 8 7 4 2 4 6 7 4 3 7 9 8 6 7 7 6 7 6 6 5 4 4 4 4
3 4 5 6 7 9 6 3 8 7 3 4 8 6 3 2 3 2 1 1 0 1 1 1 1 3 3 4 5 2 1 1 0 2 5 6 4 1 2 2 2 2 2 2 2 1 2 2 2 4 7 7 6 4 3 3 6 3 2 2 5 6 8 9 8 7 4 1 2 4 5 6 4 4 7 9 8 7 8 8 8 7 7 6 5 5 5 4
3 5 5 6 8 7 3 5 11 6 2 9 10 5 3 2 2 1 1 1 0 1 2 2 1 4 3 2 4 2 1 3 1 2 5 5 3 1 1 2 3 4 3 2 3 1 3 2 2 3 7 6 3 1 2 2 4 1 3 1 3 4 5 6 7 6 1 0 4 6 4 6 6 2 5 8 8 8 11 12 11 9 9 8 7 6 5 4
3 4 6 6 7 5 4 8 10 5 6 12 10 5 2 3 2 1 0 1 0 1 2 1 0 3 3 1 5 5 2 3 2 4 6 3 4 2 1 3 4 7 5 3 1 2 2 2 2 1 2 2 2 3 2 2 2 3 4 4 5 4 3 2 5 4 2 4 7 7 8 7 5 3 6 7 8 10 11 11 10 10 10 9 8 7 7 6
3 4 6 7 7 7 7 7 6 7 10 12 9 3 1 2 1 1 0 1 0 2 1 1 1 2 3 1 3 5 3 3 3 5 3 1 4 5 3 1 2 6 5 6 6 3 1 1 0 2 2 1 2 2 1 1 1 3 6 6 7 4 3 2 1 1 3 7 4 3 5 5 5 3 7 6 4 7 10 10 10 11 10 10 8 8 8 7
4 3 5 5 6 7 5 4 5 9 12 11 7 1 1 1 0 1 1 1 1 1 1 1 1 3 2 1 2 4 3 3 5 4 2 2 3 4 2 1 2 3 3 3 5 3 2 1 1 2 2 2 1 2 2 1 1 2 3 5 5 3 3 2 1 2 7 7 1 1 1 4 6 3 4 5 1 3 8 11 14 14 12 11 9 9 8 7
6 4 4 5 5 5 5 5 7 11 12 10 4 1 1 0 0 2 0 1 0 1 1 1 2 2 2 2 3 3 2 2 4 4 2 1 1 2 1 1 2 2 3 4 3 2 2 2 2 1 1 2 2 3 4 2 3 2 2 6 6 4 4 5 4 4 7 4 1 1 0 4 7 1 4 7 4 2 3 7 13 15 14 12 10 9 8 7
7 5 4 6 6 7 8 9 10 12 11 7 2 1 1 0 1 1 0 1 1 2 2 2 2 2 2 0 2 2 1 1 3 3 1 1 1 2 1 1 0 2 2 4 5 3 3 2 1 2 2 4 3 3 3 3 5 4 4 6 7 6 5 7 6 3 5 2 1 1 1 5 6 1 5 6 6 3 2 3 10 13 13 12 11 10 8 8
8 5 6 8 9 10 11 10 11 12 9 4 1 2 2 0 1 1 1 1 1 1 1 2 1 2 2 1 1 2 1 1 3 2 1 0 2 2 2 1 1 2 1 3 4 4 5 3 2 1 0 3 2 1 1 1 4 3 0 1 5 5 4 6 5 3 3 1 2 2 1 4 4 2 4 4 5 4 3 4 8 9 10 10 10 9 9 8
10 9 9 11 10 9 10 9 10 10 6 2 1 2 2 2 1 1 1 1 2 1 1 1 0 1 2 1 1 1 1 1 2 1 1 0 2 2 1 2 0 1 2 3 3 2 3 2 2 1 2 3 3 2 3 2 3 2 2 1 3 3 1 0 1 1 1 1 2 4 3 2 1 3 4 3 4 4 4 6 8 9 10 10 9 9 9 8
10 9 9 10 9 7 7 9 9 8 4 2 2 1 2 1 1 2 1 2 2 3 4 2 1 2 1 1 1 1 1 1 1 1 1 0 1 1 1 1 1 1 1 2 2 2 2 0 2 0 0 2 3 2 2 3 2 3 3 4 2 2 2 2 1 1 1 5 3 4 5 2 2 2 5 6 5 6 7 7 9 9 10 10 9 9 9 8
8 7 7 8 8 4 6 8 9 6 2 2 2 1 2 0 0 1 1 1 1 2 4 3 1 2 2 2 2 1 1 1 1 2 2 1 1 2 3 1 0 1 2 1 1 1 1 1 1 1 1 2 1 2 1 2 2 1 3 3 2 1 1 0 3 1 2 8 4 3 6 6 4 2 4 7 9 9 10 10 10 10 11 11 9 9 10 9
8 7 6 8 7 3 6 8 8 5 3 2 1 1 1 1 0 0 1 1 0 1 3 3 1 0 1 2 2 1 1 2 3 2 2 2 2 3 4 2 0 0 2 3 1 1 1 2 1 1 1 2 1 3 2 1 1 1 1 1 1 3 3 2 3 3 4 7 5 3 3 6 8 5 5 10 14 13 13 12 12 12 12 11 10 11 11 10
7 4 3 5 6 3 7 8 7 3 2 3 2 1 1 1 0 0 0 0 0 1 3 2 0 0 1 2 1 1 1 1 3 3 2 2 2 2 2 1 1 1 1 2 1 1 0 2 1 1 2 3 1 3 4 3 2 1 1 0 1 2 3 2 2 2 4 6 4 2 1 4 6 3 6 11 14 15 15 14 13 13 13 11 10 10 11 10
3 2 1 3 3 4 8 7 4 2 2 2 1 1 1 1 1 1 0 1 1 1 1 1 1 2 2 1 0 1 0 1 2 2 1 1 1 1 2 1 1 2 1 2 2 0 1 1 2 2 1 3 1 1 1 0 1 2 4 4 2 1 1 1 1 0 2 4 3 3 5 4 1 2 1 4 7 13 15 13 12 12 12 11 10 10 10 10
1 1 1 2 1 6 8 6 3 1 1 1 1 1 1 2 3 2 1 1 1 1 1 1 1 1 2 2 1 2 2 1 2 1 2 2 1 0 2 2 1 2 2 2 2 2 1 2 2 2 2 3 1 2 3 3 2 1 2 2 2 2 2 4 4 1 1 3 2 1 6 4 2 2 1 2 2 9 12 12 11 11 12 11 10 11 10 10
1 1 1 2 2 8 6 4 2 0 1 1 1 1 1 2 3 2 1 1 1 1 1 1 1 1 2 2 1 3 3 2 2 1 2 2 1 1 1 1 2 1 1 1 1 0 0 1 2 2 1 1 2 2 1 3 3 2 2 1 1 1 3 6 6 3 2 1 1 1 4 3 1 1 1 2 0 5 10 11 10 10 11 11 10 11 10 10
1 2 2 3 2 6 4 2 1 0 1 1 1 1 0 1 2 2 1 1 0 1 1 1 1 1 1 1 1 4 3 2 3 2 1 1 1 2 1 1 1 1 1 1 1 1 1 1 2 1 0 1 1 1 1 1 2 3 3 1 1 2 1 1 2 0 2 4 3 2 4 3 1 1 0 1 0 3 7 9 9 9 9 10 11 10 10 10
1 2 2 4 1 4 2 1 2 1 1 1 1 2 1 1 2 2 2 1 0 2 2 1 1 1 1 1 2 3 2 2 2 0 0 1 1 2 2 2 1 1 1 1 1 1 1 2 3 2 1 2 2 3 3 2 2 3 2 1 0 1 3 2 0 0 3 5 6 6 7 3 3 1 1 2 2 5 6 7 8 9 8 9 10 9 9 9
2 2 1 4 6 3 2 1 2 3 3 1 1 3 2 2 1 0 1 2 1 1 2 1 1 2 3 2 2 2 1 1 1 0 1 1 1 1 1 1 1 1 1 2 3 2 1 1 3 4 5 5 3 2 2 2 3 2 2 2 2 3 4 2 1 3 5 3 5 9 8 1 2 1 4 5 5 7 8 8 8 8 9 9 9 8 8 8
2 1 1 1 5 4 2 1 2 4 4 3 2 2 3 3 1 0 1 2 2 1 2 2 2 2 2 2 2 1 1 2 2 1 2 2 2 1 1 0 1 3 2 2 3 1 0 0 1 2 3 3 0 1 1 1 3 3 3 5 5 4 4 2 1 5 5 3 5 10 4 1 2 6 6 6 7 8 8 9 8 8 8 9 8 8 8 7
2 2 2 2 1 1 1 0 2 3 3 5 3 3 4 3 2 2 1 0 1 2 1 2 2 3 3 4 3 2 1 1 1 1 1 1 0 1 1 1 1 5 4 0 3 2 2 2 1 1 1 1 1 1 2 2 1 2 2 5 8 7 5 6 8 6 5 4 8 6 4 5 7 7 9 10 9 8 9 10 10 8 8 7 7 7 8 8
1 2 1 1 0 2 1 2 4 3 3 2 1 3 5 4 3 3 2 1 1 1 1 1 2 4 5 6 5 4 2 0 1 2 2 1 0 1 0 1 1 2 2 0 2 0 2 2 1 2 0 1 0 1 1 1 2 2 2 4 8 9 9 12 13 7 6 9 8 1 3 10 6 5 8 11 11 11 11 10 8 7 7 7 7 8 9 9
1 2 2 3 2 2 1 1 5 6 4 3 1 2 5 7 6 3 1 3 1 2 2 3 5 5 5 5 4 4 4 3 2 3 3 3 2 2 1 2 3 2 2 1 1 0 2 2 2 2 1 1 1 1 1 2 2 3 5 6 7 10 12 13 11 6 6 11 8 1 4 10 6 3 5 5 8 9 6 5 5 7 8 8 8 10 10 10
2 2 3 2 2 2 2 2 5 6 3 1 1 3 5 7 8 3 1 3 3 3 4 4 4 4 4 4 5 4 5 5 2 3 6 5 2 3 3 2 3 3 1 2 2 1 2 2 3 2 2 1 1 1 1 1 2 5 6 6 7 9 10 11 10 5 5 11 10 6 10 12 8 8 6 4 5 6 5 6 9 10 10 10 11 11 11 11
3 4 6 4 2 2 1 1 3 3 2 2 3 4 4 7 9 6 2 1 2 4 5 5 6 5 3 2 5 4 5 4 2 2 6 5 2 2 2 1 3 6 4 2 1 1 1 2 3 1 3 2 2 1 2 1 3 7 9 10 12 11 8 9 9 8 9 10 6 6 10 10 4 7 8 6 7 9 11 11 11 10 11 12 12 12 12 12
5 4 4 4 3 2 2 2 1 1 2 2 3 4 3 4 7 6 3 1 1 1 1 3 7 5 2 4 6 3 2 3 2 2 3 4 4 3 3 3 3 4 5 4 1 1 1 3 3 2 3 2 1 2 2 2 4 6 6 9 15 15 10 7 7 10 14 11 6 6 8 4 3 7 8 7 8 11 12 12 11 11 11 12 12 12 12 11
Wind_Direction
356 357 359 359 354 351 348 343 344 344 345 344 345 347 341 332 330 335 342 343 335 330 331 329 336 340 331 344 23 108 112 107 97 74 63 14 1 46 42 50 76 112 129 121 133 127 116 113 110 127 123 99 70 124 119 21 346 238 201 194 199 186 182 169 162 154 126 138 143 144 127 114 111 115 122 78 64 78 78 73 71 68 61 51 40 15 360 355
351 358 359 357 352 348 343 340 342 343 345 344 342 341 337 332 327 334 338 336 333 327 330 328 324 317 302 312 97 120 113 105 88 64 42 19 28 58 39 62 87 121 136 128 149 148 142 136 131 143 138 108 40 139 172 348 323 214 196 196 196 154 112 69 111 121 122 136 128 102 94 90 55 90 126 84 67 69 73 67 60 60 46 35 24 10 7 6
348 357 355 353 350 344 339 338 338 339 343 342 339 334 330 325 323 332 328 328 333 325 329 327 320 319 298 204 151 130 122 113 84 40 22 35 42 42 37 75 83 127 146 134 145 148 143 138 142 151 136 108 58 141 162 25 294 207 211 196 161 110 99 58 61 93 114 127 121 100 77 64 23 3 93 107 86 56 56 45 31 39 20 11 9 6 6 9
349 356 351 347 345 344 341 338 337 337 339 336 332 329 326 316 311 323 326 325 325 323 331 332 341 326 260 185 152 139 147 138 81 360 8 45 51 38 37 81 105 132 148 143 138 132 130 133 146 156 140 118 104 142 146 31 296 159 228 177 124 123 112 59 37 78 92 120 121 120 95 76 42 22 46 124 100 56 50 38 29 35 14 4 2 4 8 13
350 353 348 344 344 344 341 338 338 337 338 339 332 325 325 316 303 316 329 323 317 314 314 344 45 289 210 182 158 148 202 176 70 355 8 43 63 51 44 79 124 140 148 150 137 131 137 144 151 155 157 150 146 152 127 42 340 115 50 56 96 137 119 65 48 77 85 118 117 116 95 87 73 36 26 63 91 69 50 44 41 40 26 12 4 7 13 17
351 351 346 344 343 342 339 337 338 335 336 338 332 326 324 318 302 312 323 315 317 303 210 131 114 228 192 170 154 139 248 148 29 355 18 42 60 56 51 89 128 134 143 144 136 146 149 158 165 165 170 172 173 169 120 92 326 129 122 37 60 90 108 79 48 66 107 116 107 105 97 99 99 67 42 60 79 85 69 63 55 46 37 28 19 20 22 22
353 350 343 343 342 342 341 338 336 335 335 332 329 324 317 314 303 301 306 302 309 150 134 121 144 205 165 140 119 85 76 76 10 360 31 39 40 40 47 113 140 134 147 147 145 165 161 164 172 170 169 171 180 172 123 105 18 154 147 69 46 66 95 91 65 78 88 96 97 102 100 96 99 90 67 71 80 88 80 70 60 54 44 39 36 32 30 28
352 347 344 345 346 350 348 340 336 332 331 330 327 320 310 305 294 282 278 276 259 157 137 137 170 177 155 146 133 91 74 39 356 14 36 36 36 29 44 136 149 130 144 150 151 167 168 168 162 166 170 154 168 167 146 139 124 162 146 98 97 68 90 106 91 95 92 94 95 88 80 79 93 93 79 78 86 88 84 74 60 56 46 41 40 34 31 29
349 347 346 347 349 351 346 339 334 329 328 327 322 317 313 304 285 255 229 200 186 165 143 158 190 170 154 159 219 97 64 352 357 20 31 33 34 23 65 136 142 129 128 117 125 159 174 176 160 170 159 125 154 158 166 180 178 161 128 100 126 84 90 117 108 108 105 110 98 88 88 96 101 93 77 79 94 91 84 74 58 51 46 39 35 33 30 28
348 346 347 349 349 347 343 340 334 330 328 325 325 331 338 348 121 134 137 150 172 166 144 167 188 169 159 256 252 129 44 3 11 18 29 34 25 28 98 131 132 139 132 107 104 141 164 163 139 134 125 120 161 152 167 190 169 138 117 92 115 93 84 123 122 121 113 120 111 104 106 97 80 75 91 102 108 99 83 66 50 49 46 38 36 33 30 30
348 347 349 350 349 347 344 341 337 333 333 331 334 3 36 79 107 117 118 138 162 150 146 170 170 151 134 24 128 105 29 11 20 24 36 40 44 61 105 129 130 143 142 126 117 118 135 135 125 124 134 143 154 138 141 162 93 135 136 115 109 102 121 125 135 141 122 118 120 115 108 64 32 58 111 125 119 104 85 67 50 48 46 41 41 36 33 31
348 348 351 351 350 349 346 345 342 338 340 341 8 59 65 80 97 120 116 112 140 145 152 162 151 134 96 67 62 46 20 19 28 33 44 57 64 69 108 132 133 146 152 145 137 149 142 135 128 105 63 154 149 136 126 114 97 140 158 152 138 152 165 133 139 160 144 146 143 128 119 54 36 81 118 123 121 108 86 69 54 48 46 45 44 41 38 33
350 350 351 351 350 351 352 348 344 342 344 13 85 73 62 72 94 123 119 116 135 142 149 151 145 128 81 72 44 23 37 33 26 30 57 70 60 63 108 138 140 139 150 149 139 150 145 132 112 88 47 143 137 130 120 108 130 147 168 184 156 176 188 138 120 174 151 159 169 165 179 109 69 96 122 129 135 113 82 64 59 52 46 46 46 47 43 36
354 354 351 350 351 353 354 349 348 345 351 88 94 72 67 82 102 117 121 126 137 143 145 144 135 96 77 81 34 38 55 52 48 43 53 69 65 67 92 128 148 138 141 147 139 143 142 120 103 105 53 38 114 149 127 115 167 147 141 192 185 197 182 113 66 187 161 166 190 222 233 169 115 103 108 134 147 109 87 70 61 57 50 47 45 44 44 38
355 356 353 352 353 355 356 353 351 353 83 110 97 79 76 94 106 113 120 124 129 135 136 132 123 101 94 88 36 49 64 61 48 35 37 57 66 69 79 114 138 131 121 131 129 126 125 120 113 110 76 37 149 155 130 126 159 154 159 182 193 210 169 115 57 229 177 160 193 221 214 149 136 122 83 104 118 101 96 81 67 64 55 50 47 40 39 37
354 356 354 352 354 356 358 357 3 61 111 108 103 95 89 97 101 108 117 122 128 131 130 119 120 124 100 94 77 57 51 39 31 31 42 54 63 78 84 104 115 109 107 107 115 113 90 89 91 43 95 139 178 155 137 151 162 194 225 187 181 200 180 144 113 349 139 138 144 217 163 126 130 127 87 89 110 103 99 88 73 66 59 54 52 41 36 35
356 357 354 356 3 4 3 16 73 109 112 107 108 105 102 100 99 107 114 118 119 115 114 98 99 106 72 65 86 56 23 8 20 34 47 56 67 88 87 91 94 98 105 94 98 104 47 45 98 269 119 147 182 165 169 185 181 191 217 196 179 200 186 162 141 84 125 161 139 70 107 114 113 116 94 77 97 105 101 94 80 68 64 61 56 50 42 38
2 356 355 18 35 28 29 65 106 115 115 112 110 108 110 105 102 103 98 113 119 108 106 76 55 120 76 55 63 31 333 352 27 34 39 52 63 77 80 89 104 112 119 103 66 62 26 24 216 174 152 167 181 194 198 205 203 184 190 194 179 204 214 195 143 123 202 178 144 101 102 117 119 112 97 82 88 103 100 98 90 74 69 66 60 57 48 45
3 355 4 46 60 55 60 87 108 117 123 122 123 122 116 108 101 81 58 60 87 107 108 35 340 125 94 80 50 19 1 4 29 32 29 31 48 71 71 74 98 121 141 149 105 69 122 138 188 191 189 194 192 208 214 12 318 183 182 199 186 187 208 183 92 51 225 136 118 117 121 133 135 122 111 104 98 102 104 104 98 86 78 74 70 65 56 54
357 356 28 58 77 79 82 98 108 119 127 127 130 133 127 119 109 68 38 42 50 19 61 31 25 88 88 75 20 22 56 59 49 31 22 13 22 76 55 37 95 123 151 156 129 106 239 184 192 202 198 194 188 194 62 49 13 174 179 203 205 196 174 112 78 32 302 126 87 101 118 128 138 127 120 118 113 108 111 115 106 105 100 89 88 79 69 64
357 13 43 63 103 103 101 111 117 123 124 128 140 174 260 332 100 116 54 59 55 18 56 52 46 75 82 57 7 348 57 70 54 25 17 15 14 109 28 35 150 148 118 68 101 103 231 210 192 126 34 80 131 117 105 92 92 165 191 195 208 214 147 75 68 43 307 243 120 115 116 124 138 130 126 134 132 114 107 120 117 120 117 104 104 96 84 83
12 39 44 75 122 124 120 125 130 128 117 121 142 63 73 59 109 130 131 96 63 18 53 60 49 65 72 58 27 1 204 77 48 18 8 9 2 44 63 160 165 147 112 134 139 142 205 211 127 59 28 74 102 133 165 154 157 179 199 197 202 191 126 98 77 57 4 264 162 150 143 131 139 133 132 145 137 114 98 110 116 128 133 126 119 111 110 113
39 59 53 94 134 141 135 139 144 127 42 47 103 101 101 106 120 130 129 106 77 24 35 38 44 50 39 48 24 10 81 59 36 18 1 356 1 21 109 152 147 134 144 181 186 179 199 182 73 49 343 152 134 149 167 156 184 201 196 204 192 157 163 190 137 84 36 12 149 165 177 161 153 153 146 151 135 122 115 104 100 112 124 120 117 112 120 122
53 80 89 114 143 150 146 149 153 98 52 85 105 105 110 110 113 116 83 98 86 49 38 39 53 40 29 31 8 15 88 54 11 2 351 353 67 298 91 127 137 150 156 197 207 189 128 54 42 102 211 188 163 166 185 191 204 212 211 223 192 155 186 359 114 126 68 65 129 156 208 224 176 182 177 157 158 151 147 142 132 128 130 126 125 117 104 94
58 93 113 133 148 157 157 150 143 106 76 90 106 106 110 107 87 71 83 102 97 82 57 117 104 44 36 4 4 21 119 72 32 333 341 0 14 233 117 90 189 170 152 142 187 195 81 55 122 156 166 196 181 178 197 213 213 214 217 229 225 168 156 104 129 159 195 198 171 177 243 239 165 190 187 155 172 179 170 177 168 158 163 162 151 140 121 100
60 85 121 146 151 158 162 148 140 131 88 94 125 122 113 92 60 42 15 117 92 93 201 115 45 35 28 353 357 348 173 88 31 334 351 7 338 256 136 123 329 134 146 138 154 202 67 82 194 177 168 174 190 194 180 212 222 220 202 202 211 171 151 148 161 186 229 225 170 196 245 254 170 201 187 161 179 185 178 191 184 173 177 177 166 154 144 133
66 76 119 148 150 157 169 174 163 150 86 140 152 142 125 70 48 28 300 228 60 4 5 49 18 25 32 350 339 283 197 19 280 17 13 3 352 280 185 148 131 95 123 158 161 122 53 88 157 177 173 172 193 191 139 213 228 214 75 144 184 178 172 173 182 209 238 63 129 199 245 267 253 204 170 163 174 189 196 199 190 182 183 176 167 160 150 146
77 80 103 143 159 170 197 176 162 152 130 163 163 161 149 45 13 315 276 221 320 2 34 50 47 29 33 348 5 45 53 334 256 51 358 352 14 284 185 104 124 99 72 244 206 108 22 40 101 172 183 184 185 108 82 231 236 90 57 112 159 172 182 184 200 221 238 269 224 195 193 259 256 146 141 169 185 210 211 202 191 183 180 174 165 161 153 144
90 99 97 129 154 156 156 156 154 150 156 162 165 172 161 9 332 250 321 228 40 67 55 41 82 15 356 320 27 37 25 9 19 346 334 349 30 21 90 85 110 97 58 339 111 91 33 24 360 302 212 171 78 42 30 261 251 105 110 107 92 90 102 156 218 209 163 243 240 182 176 243 260 154 154 181 208 222 211 196 187 178 176 174 166 162 158 152
96 119 109 121 135 132 134 134 140 154 159 162 164 165 329 337 266 166 22 249 83 76 359 320 242 334 329 207 49 26 18 29 352 328 336 59 29 35 84 96 108 95 65 48 69 96 111 37 325 17 6 353 46 41 32 324 335 130 137 122 105 104 96 88 238 178 210 238 243 164 185 238 259 195 169 177 216 214 191 177 176 174 173 172 168 166 163 161
87 131 134 130 135 141 140 124 142 157 157 160 155 131 319 6 81 170 194 252 83 63 311 6 11 347 358 142 70 25 21 19 346 338 34 66 33 59 104 175 144 112 110 94 83 105 137 111 111 68 19 312 257 125 101 69 207 170 174 145 126 127 140 165 170 184 229 235 228 7 300 232 242 239 170 169 133 178 181 176 173 172 172 171 168 166 164 162
77 100 139 136 141 150 143 140 152 154 154 154 140 26 222 109 270 212 269 343 15 10 26 45 11 18 37 69 47 8 342 21 13 18 40 10 50 71 18 259 162 165 204 190 157 127 132 95 49 90 76 360 265 166 117 137 199 217 195 171 176 180 178 212 203 199 233 236 60 339 120 223 244 259 145 167 145 130 171 177 174 167 167 169 164 162 161 162
75 77 111 118 125 128 125 135 145 147 150 151 138 56 98 121 223 173 66 350 350 4 42 53 29 33 11 35 62 1 289 26 14 23 43 296 81 74 23 23 321 255 215 176 172 176 178 140 106 187 135 17 314 190 143 167 191 200 190 186 201 193 192 218 207 215 250 217 94 314 141 232 249 110 130 154 132 106 69 147 167 161 161 163 158 160 163 164
84 89 108 107 109 115 119 131 140 144 148 146 140 88 84 208 208 141 222 256 314 339 38 45 56 69 34 52 68 307 233 87 4 352 42 172 184 183 182 135 299 295 103 147 180 203 217 203 145 164 142 4 354 346 353 192 182 188 120 235 225 210 217 230 216 228 249 147 151 191 191 243 245 119 112 113 107 106 93 125 144 146 151 154 154 161 164 167
98 97 99 96 96 106 120 137 144 148 156 141 90 94 129 222 215 172 207 189 183 178 90 21 256 125 49 39 54 311 249 85 28 359 24 346 204 197 166 139 125 314 203 189 172 184 247 272 74 47 327 357 24 16 340 307 194 160 46 330 243 248 284 269 260 280 30 353 194 192 230 275 73 111 126 123 131 138 132 139 144 146 150 153 160 166 169 173
109 95 86 79 75 92 125 143 147 152 165 142 106 128 204 234 192 171 146 125 160 155 146 155 156 164 228 270 93 65 273 286 36 213 198 331 253 209 101 98 65 6 259 212 150 151 232 343 73 120 139 42 10 343 331 300 227 149 166 202 202 2 44 125 196 73 69 263 230 177 239 244 120 174 168 159 172 167 161 164 161 160 161 164 172 174 176 178
117 97 76 57 52 86 135 144 146 146 139 134 137 174 212 212 79 160 95 87 150 134 158 183 188 197 218 213 187 172 223 225 203 213 188 165 217 170 142 124 68 76 330 306 185 181 241 163 75 353 148 100 360 285 296 319 310 166 191 185 114 55 17 220 238 183 200 251 244 189 242 242 215 221 156 171 195 188 181 180 173 172 172 176 182 179 180 179
125 108 78 42 35 81 135 142 144 131 105 138 188 256 173 133 17 40 90 112 158 137 187 209 210 283 216 199 186 153 187 194 160 176 195 196 200 145 136 148 141 91 319 300 253 5 284 211 114 4 270 43 27 238 209 137 26 314 253 20 79 220 216 180 222 233 215 241 248 216 247 255 236 216 159 190 202 192 186 184 182 182 181 184 186 182 180 176
139 123 79 25 24 88 137 143 139 115 119 171 210 218 169 167 229 91 79 252 204 166 201 213 44 25 192 176 148 119 202 198 156 172 218 204 187 117 117 142 146 167 275 293 273 71 332 244 197 130 295 334 6 221 211 162 144 188 218 91 33 270 260 198 194 261 233 232 246 236 240 239 232 200 167 192 196 186 183 184 186 188 186 188 187 181 179 176
141 124 99 5 25 115 137 132 115 94 129 172 211 158 141 199 165 114 29 278 270 194 208 173 155 194 173 144 226 154 93 255 177 193 233 190 185 120 90 52 131 156 208 290 272 197 97 230 218 119 280 267 200 187 270 184 151 193 193 187 174 157 323 258 212 44 254 243 232 253 261 236 153 69 148 188 187 184 181 181 184 186 187 189 186 181 179 179
122 126 133 348 60 136 131 100 66 70 140 124 152 135 150 178 149 115 69 350 3 22 16 76 143 183 161 168 220 167 148 215 211 232 225 200 227 90 64 10 44 127 174 180 204 219 158 190 200 143 187 221 121 55 5 355 344 287 218 214 208 175 166 213 221 144 19 269 230 255 274 261 102 67 6 42 174 186 179 176 178 182 187 188 184 183 181 183
108 145 90 351 151 149 126 70 38 43 121 102 123 135 139 140 134 125 119 71 26 81 71 85 90 86 151 160 169 156 155 187 189 217 239 216 314 27 59 349 343 349 262 171 90 313 137 127 144 129 185 221 53 61 39 335 320 302 287 304 346 242 213 220 227 189 140 225 71 50 280 280 72 62 12 33 193 182 175 176 176 179 185 183 182 184 185 187
90 135 66 20 142 154 111 71 176 62 44 310 326 56 60 111 134 150 161 128 139 149 128 127 94 63 171 115 115 167 189 213 188 180 225 225 16 49 57 341 289 284 261 155 102 147 187 184 164 132 15 140 115 126 130 359 316 258 237 205 187 253 270 266 267 218 165 186 162 180 252 260 109 104 332 354 269 178 177 178 173 174 181 181 184 185 183 185
81 120 42 13 57 175 164 148 179 154 139 257 13 90 71 50 114 145 180 164 143 161 149 141 109 86 115 79 101 152 186 221 210 166 122 193 154 88 35 341 277 242 258 318 33 150 217 205 179 175 175 173 183 196 193 179 202 240 222 141 193 127 92 94 166 171 234 208 174 206 243 238 100 96 236 218 201 189 187 183 177 179 184 182 183 184 182 182
118 97 329 8 33 91 159 181 148 136 140 145 119 148 151 99 93 151 147 118 73 149 129 123 145 105 100 107 94 85 61 11 270 79 102 171 154 99 19 323 261 289 334 343 341 313 273 215 189 200 206 210 208 204 226 196 169 204 201 177 201 165 156 183 168 198 227 190 168 219 240 248 80 223 225 212 201 194 189 186 187 188 187 183 181 181 181 180
151 87 181 354 24 57 82 15 105 124 145 156 146 178 172 142 134 166 129 125 147 153 92 102 155 123 106 132 118 90 53 35 38 131 162 184 167 121 350 332 261 266 263 44 34 31 137 91 275 244 232 247 237 109 353 352 151 166 177 186 194 191 200 219 198 211 198 140 204 222 216 3 244 215 215 214 206 203 195 186 190 194 188 183 181 179 179 182
183 154 152 169 23 84 72 39 134 113 157 185 180 163 162 154 120 134 181 258 135 143 71 74 158 173 169 161 148 159 166 37 18 164 167 197 126 9 311 117 285 268 250 309 42 72 174 206 181 90 9 332 34 85 4 334 210 185 170 181 188 189 188 197 217 214 134 154 237 221 161 234 230 195 204 212 202 203 202 194 194 194 186 178 174 174 179 185
181 142 100 7 354 157 146 183 159 113 99 152 121 124 152 167 167 165 171 74 84 202 196 176 225 209 184 170 159 158 150 63 260 209 155 172 191 40 269 191 227 260 240 294 13 56 211 237 176 129 184 296 312 31 353 283 238 240 241 212 195 188 189 204 220 214 172 213 246 70 169 236 226 171 204 207 199 203 204 197 187 177 177 174 171 180 188 191
123 98 51 358 14 132 23 83 133 124 108 105 101 158 170 182 187 185 126 114 126 268 220 215 230 202 176 172 155 154 173 188 224 219 174 160 176 167 167 200 200 193 188 168 79 349 217 188 129 149 218 250 283 320 270 228 255 251 233 224 209 204 208 217 229 222 216 247 266 33 244 254 248 227 234 213 205 208 195 175 172 179 186 183 184 195 198 196
171 162 135 63 57 102 11 42 128 130 109 85 197 180 174 186 187 182 149 157 166 188 194 213 208 156 139 164 164 184 209 185 166 200 178 156 173 206 205 201 155 137 178 180 121 301 255 150 108 130 232 255 340 320 225 218 279 261 244 230 218 218 224 235 245 234 229 260 268 256 265 271 247 222 229 212 195 195 185 189 197 198 195 191 195 203 204 201
119 129 142 123 108 149 136 71 120 134 151 199 203 172 181 203 189 160 137 196 161 169 184 185 160 123 74 169 188 221 227 184 152 202 179 157 155 194 194 203 151 148 161 168 143 244 230 125 100 138 232 247 34 344 263 281 283 264 256 236 216 210 213 221 223 208 205 226 238 238 260 271 218 178 197 193 180 192 202 202 203 202 196 195 202 206 206 206
110 101 137 116 103 167 171 111 116 171 179 180 171 164 192 213 182 156 149 186 75 93 176 165 152 131 101 192 203 218 170 145 101 81 132 121 86 81 83 64 82 130 159 159 117 354 170 155 143 169 228 243 37 336 296 300 269 255 248 226 210 203 207 217 221 218 214 212 203 214 239 264 108 145 181 187 186 203 212 206 203 201 195 199 208 210 208 207
Height
815 814 813 813 812 811 810 809 808 808 807 807 806 806 805 805 805 804 804 805 805 805 804 805 805 805 805 805 804 804 804 804 804 804 806 808 808 807 807 806 806 806 806 806 806 806 806 807 808 808 808 810 812 813 813 814 814 813 814 820 823 820 820 821 820 822 822 826 830 832 833 837 845 847 846 849 854 861 865 869 875 877 879 882 884 884 883 880
815 814 814 813 812 811 810 809 808 807 807 806 805 806 805 805 805 804 805 804 804 804 804 804 804 804 804 804 804 804 804 804 804 805 808 809 808 808 808 807 807 807 807 807 807 807 807 808 809 808 809 812 815 815 815 815 814 815 815 818 823 821 821 822 820 822 822 825 830 834 836 838 845 846 843 852 863 865 867 872 875 878 882 884 885 884 883 880
815 814 814 813 812 811 810 809 808 807 806 806 805 805 805 805 805 804 804 804 804 803 803 803 803 804 804 804 804 804 804 804 805 808 809 809 808 809 809 808 808 808 808 808 808 808 808 809 809 809 811 815 817 816 816 817 817 817 816 818 822 822 823 825 824 824 823 825 831 838 840 845 852 847 844 856 867 872 877 881 880 883 886 886 886 885 883 880
815 814 814 813 812 811 810 809 808 807 806 806 805 805 805 805 804 804 804 803 803 802 803 803 803 804 803 804 803 804 804 803 808 812 810 809 809 810 809 809 809 809 809 809 809 809 809 809 810 809 812 817 819 817 818 820 819 818 818 818 822 821 823 828 828 827 826 826 831 837 840 849 856 853 852 852 857 875 886 889 889 890 891 890 888 886 884 881
815 814 814 813 812 811 810 808 807 807 806 806 805 805 805 804 804 804 803 803 802 802 802 802 803 804 803 804 803 805 803 801 809 813 811 810 810 810 810 810 809 810 810 810 810 810 810 810 811 811 813 817 819 819 822 822 820 822 825 824 822 821 825 831 829 830 830 828 832 837 842 851 858 864 866 857 862 883 891 892 894 893 893 892 890 888 886 883
815 814 813 812 811 810 809 808 807 806 805 805 805 805 804 804 804 803 803 802 801 801 802 802 803 803 803 804 804 805 802 802 811 813 811 811 811 811 810 810 810 811 811 811 812 811 811 811 811 813 814 816 817 818 823 823 820 824 830 829 825 822 827 832 831 832 831 830 836 841 847 854 861 873 878 875 882 893 894 895 895 895 895 894 893 890 888 886
815 814 813 812 810 809 809 808 806 805 805 804 804 804 804 804 803 803 802 802 801 801 802 802 803 804 804 805 805 805 805 809 814 813 812 812 811 811 811 811 811 811 811 812 812 811 812 812 813 815 816 818 817 818 823 823 820 822 829 832 829 827 830 834 833 834 833 834 841 843 849 854 859 872 882 886 892 895 896 897 896 897 896 895 894 892 890 888
814 814 813 812 810 809 809 807 807 806 805 804 804 803 803 803 802 802 802 801 802 801 802 803 803 804 804 805 805 804 808 813 814 812 813 812 812 812 811 811 811 812 812 813 813 812 813 813 815 816 818 820 818 820 824 824 824 823 828 834 832 830 834 835 835 836 837 840 844 847 854 860 863 871 884 890 894 896 897 898 897 897 897 895 894 893 891 889
814 813 812 811 810 809 808 807 806 805 805 804 803 803 802 801 801 801 801 801 802 802 803 803 804 804 804 806 803 803 812 815 814 813 813 812 812 812 812 812 812 813 813 813 814 814 814 815 817 816 818 822 821 823 824 823 825 825 829 835 832 832 835 835 837 838 839 843 844 852 864 869 868 871 885 894 894 896 897 897 897 897 896 895 893 893 892 891
813 813 812 811 810 809 808 807 806 805 805 804 803 802 801 801 801 801 800 801 802 802 803 803 804 804 805 806 801 805 815 815 814 814 813 813 812 812 812 812 813 813 814 815 815 815 815 816 817 817 818 822 823 826 826 824 825 826 832 836 832 834 836 834 838 839 839 842 842 852 866 869 866 869 885 896 894 896 897 896 897 896 895 895 894 894 894 893
813 812 811 810 809 808 808 807 806 805 804 803 803 802 801 801 801 801 801 801 802 803 804 804 805 805 806 805 803 809 816 815 814 814 813 813 812 812 813 813 814 814 815 815 816 816 816 817 817 818 819 821 824 828 828 827 827 828 831 834 832 833 835 834 837 838 838 843 843 848 861 868 870 875 887 894 894 896 896 897 897 896 897 896 897 896 896 895
813 812 811 810 809 808 807 806 806 805 804 803 802 802 802 801 801 802 801 802 803 803 804 804 805 806 805 805 809 815 817 815 815 814 814 814 813 813 813 813 814 815 816 816 817 817 817 818 817 819 821 821 824 828 829 830 831 830 829 831 832 832 832 834 837 836 837 842 843 841 849 869 881 885 891 893 895 896 895 897 897 897 898 898 898 898 897 897
812 811 810 810 809 808 807 806 806 804 804 803 802 802 801 801 801 802 802 803 804 804 805 805 806 806 805 810 817 818 816 816 816 815 815 814 814 814 814 814 815 815 816 816 817 817 818 819 818 821 823 821 825 828 828 830 832 831 830 829 832 834 831 833 836 835 837 839 840 837 841 869 891 890 892 893 894 896 895 898 898 899 900 899 899 898 899 899
811 810 810 809 808 807 807 806 805 804 804 803 803 803 802 802 802 802 803 804 804 805 806 806 807 806 807 815 819 818 817 817 816 816 816 815 815 815 815 815 816 817 817 817 818 818 819 819 819 822 825 825 827 829 828 831 831 829 832 830 829 831 829 834 839 836 838 840 842 839 837 865 892 892 893 894 893 894 896 899 900 900 900 899 900 899 900 900
811 810 809 808 807 807 806 806 805 805 804 804 804 804 804 803 803 804 804 805 806 806 807 807 808 806 809 817 819 818 818 817 817 817 817 816 816 816 816 817 817 817 818 818 818 819 821 820 821 823 827 830 828 828 828 830 830 829 830 830 829 829 827 834 842 838 837 841 846 842 841 867 889 893 894 894 894 894 896 900 901 901 901 900 901 900 900 900
810 810 809 808 808 806 806 806 805 805 805 805 805 805 805 805 805 805 805 806 807 807 808 808 808 806 810 817 819 819 819 819 819 819 818 817 817 817 818 818 818 819 819 820 820 821 821 821 826 828 828 830 827 825 827 829 831 831 827 825 828 828 826 832 839 840 838 841 847 844 851 874 886 891 895 894 894 895 897 901 901 901 902 901 902 902 902 902
810 809 808 808 807 807 806 805 805 806 806 806 806 806 807 807 807 806 807 807 807 809 809 808 809 807 812 819 820 821 822 821 821 820 819 819 818 819 819 819 819 820 820 820 821 822 822 825 829 829 827 828 827 824 825 827 827 830 828 826 830 829 826 830 835 841 840 839 846 848 859 880 887 893 897 895 896 896 898 901 902 902 902 903 903 904 905 904
809 809 808 807 807 807 806 806 806 806 807 808 807 808 808 808 808 808 809 809 808 808 807 809 808 805 814 822 822 823 824 823 822 821 820 820 820 819 819 820 820 820 821 822 824 824 825 828 828 827 827 829 828 823 821 822 819 822 827 826 830 832 829 827 831 842 841 837 846 853 868 887 892 894 897 897 898 897 900 901 902 904 903 904 905 905 907 906
809 808 808 807 807 807 807 807 807 807 808 808 808 809 809 809 809 809 810 810 811 811 810 814 814 809 816 824 824 825 824 824 823 822 822 822 821 820 820 821 821 821 822 823 825 827 827 828 829 827 826 826 825 821 819 823 820 818 823 822 823 827 829 831 835 845 843 841 850 855 869 889 893 895 898 899 900 899 902 903 903 905 905 905 906 906 908 907
809 808 808 807 807 807 807 808 807 808 809 808 810 810 809 809 808 812 816 815 819 821 820 822 822 819 821 825 825 825 825 824 824 824 824 823 822 822 822 822 822 823 824 825 827 832 831 828 827 824 823 823 824 826 826 830 828 822 824 824 823 822 826 837 843 849 847 845 859 865 872 888 893 895 899 898 900 901 902 903 904 906 906 906 907 907 908 908
809 808 808 808 808 808 808 808 809 809 809 810 811 810 810 810 808 814 820 823 826 826 825 825 824 823 825 826 826 826 825 824 825 826 824 824 824 822 824 824 824 825 830 832 830 834 833 825 824 827 831 831 830 832 832 832 830 827 826 826 827 824 830 844 847 850 850 844 860 875 877 888 894 896 900 899 900 902 902 904 904 906 907 907 908 908 908 909
808 808 808 808 808 809 808 809 810 810 811 811 811 811 813 813 812 814 817 822 827 826 825 826 825 825 827 827 827 826 825 825 826 827 826 826 824 824 826 826 825 828 834 835 830 833 831 824 830 839 842 840 837 836 832 831 831 829 827 825 827 827 835 847 849 852 850 842 856 872 875 886 896 897 900 901 902 904 904 905 905 905 907 907 908 908 908 910
807 808 808 808 809 809 809 810 810 811 811 810 811 812 813 814 815 815 814 818 826 828 827 827 827 828 827 827 828 826 826 830 830 829 829 828 826 828 827 826 828 831 834 831 827 829 827 828 840 847 845 840 838 838 834 832 832 828 827 825 825 831 833 835 844 855 853 847 854 864 869 883 896 899 902 903 903 906 906 906 907 906 907 907 907 909 908 909
808 808 808 809 809 809 810 810 811 811 811 811 812 813 814 815 815 815 815 818 825 828 828 829 829 829 829 829 829 827 829 834 834 833 833 830 829 831 829 829 831 830 833 833 829 828 832 842 849 849 847 840 836 838 835 831 831 831 830 825 824 835 837 833 843 853 855 854 857 860 856 861 882 893 896 903 904 904 906 906 908 907 907 909 908 909 910 909
808 808 808 809 809 810 811 810 812 812 812 813 813 814 815 815 816 816 815 817 823 828 829 830 830 830 831 831 830 830 831 834 836 836 836 834 833 831 832 834 831 830 836 838 833 829 837 850 851 847 847 842 836 836 836 831 829 830 832 828 826 832 839 843 846 845 844 845 850 854 836 832 870 890 887 898 903 901 904 903 905 907 906 908 907 908 910 909
808 808 808 809 809 811 811 811 813 813 813 815 815 816 815 815 817 815 814 815 820 827 830 829 830 832 832 832 833 832 830 834 839 838 836 836 836 833 832 835 834 834 838 838 835 836 843 851 851 846 843 842 837 835 840 839 828 827 834 835 832 833 839 843 842 838 833 833 845 853 833 825 858 880 882 895 900 897 901 901 901 904 904 905 907 907 908 909
808 808 808 808 810 811 810 812 812 812 814 815 815 816 815 816 816 815 815 813 818 828 831 830 832 833 833 836 836 831 828 833 838 838 838 836 836 835 831 832 834 836 842 839 833 842 850 848 848 846 840 840 835 833 846 847 829 828 842 844 837 836 839 840 838 835 830 835 849 854 845 831 835 859 880 891 896 896 898 898 897 900 902 903 905 906 907 909
809 809 808 808 809 810 810 811 811 813 814 814 817 816 816 817 815 815 813 810 821 834 833 831 833 833 835 836 836 835 836 839 836 835 839 837 836 835 830 835 837 838 848 838 827 847 858 849 849 848 838 835 837 842 853 851 835 837 852 850 841 840 840 838 837 834 835 841 842 843 852 839 823 856 891 888 890 895 891 892 894 896 900 901 904 906 907 909
810 809 808 808 809 810 811 810 812 813 813 815 816 815 817 817 814 816 814 812 827 839 834 834 834 835 838 837 838 841 841 842 838 836 840 838 835 835 834 840 841 840 849 841 833 852 862 856 858 853 842 839 847 855 858 853 842 845 854 849 847 847 844 845 840 836 844 846 838 837 848 837 820 853 890 887 883 882 877 883 888 892 897 899 902 905 906 909
809 809 809 808 809 810 810 811 813 813 814 815 815 817 818 815 815 817 813 816 831 839 835 835 836 839 840 836 838 844 843 844 847 843 839 838 837 837 839 843 842 841 846 844 846 857 861 861 861 859 856 854 858 860 859 860 853 851 851 843 846 847 844 850 843 840 848 843 843 850 851 842 826 837 867 874 867 861 863 876 884 889 895 897 901 903 905 907
810 810 810 809 809 810 810 813 813 813 815 815 816 818 815 816 821 815 813 826 836 836 836 839 845 845 843 839 839 845 848 848 852 846 838 840 839 837 840 839 836 839 843 843 849 856 858 858 859 862 865 863 860 856 857 861 856 852 845 836 842 843 843 849 844 850 851 834 848 868 866 858 833 824 847 861 861 857 857 867 877 884 891 894 898 900 903 905
810 810 810 809 809 810 810 812 813 814 815 815 817 817 815 819 819 813 822 835 833 834 840 843 849 850 847 847 847 854 855 850 853 853 849 850 845 845 851 844 839 840 838 837 844 850 851 855 862 864 864 864 857 848 851 856 853 851 844 836 839 840 848 851 844 852 847 835 860 875 868 860 832 825 847 855 862 866 861 864 871 879 886 890 896 899 901 904
809 810 810 810 809 810 811 812 814 814 814 817 817 816 818 818 815 823 835 835 832 844 850 848 854 856 849 843 849 861 858 852 857 857 857 856 848 855 865 863 861 849 833 834 842 846 847 853 862 860 858 865 859 844 843 847 846 845 840 834 833 839 853 854 846 854 848 845 867 871 862 849 823 832 857 858 866 874 870 870 871 876 884 887 893 897 899 902
810 810 810 810 810 810 811 813 814 814 816 817 814 817 821 816 820 836 839 838 848 854 854 855 857 854 850 848 856 863 853 853 863 856 852 851 842 845 854 862 870 857 839 840 842 842 839 841 855 860 858 865 864 856 854 849 843 845 847 842 833 832 837 838 836 840 841 848 865 871 858 827 810 841 869 868 874 877 875 876 875 878 885 887 893 896 897 900
810 811 811 811 811 811 813 814 814 815 816 815 816 821 821 813 822 833 831 841 855 852 854 862 854 844 850 855 862 867 854 852 863 857 851 850 840 840 847 855 866 861 845 836 840 852 849 844 860 870 867 868 866 866 870 858 843 846 855 850 841 833 831 846 858 855 854 853 855 858 842 820 833 868 879 875 877 878 878 880 880 883 886 888 892 894 896 898
810 811 811 812 812 813 814 813 815 816 815 816 818 822 821 818 826 834 835 843 848 846 849 852 847 842 846 851 857 865 861 855 859 854 851 855 850 851 858 861 869 869 854 837 837 854 854 853 870 873 868 873 871 868 873 863 846 846 850 846 849 850 845 855 870 876 873 852 837 840 831 823 843 864 872 877 876 877 880 880 880 883 885 888 890 891 894 895
811 811 812 814 813 813 814 814 816 816 816 817 816 822 832 835 839 845 848 850 848 848 843 834 838 842 839 844 853 859 859 855 856 849 845 851 851 854 864 868 872 875 872 858 843 847 848 848 869 875 865 871 878 872 871 870 860 851 846 847 853 858 854 848 850 861 867 849 832 834 831 820 817 833 867 882 873 873 878 877 880 882 883 887 887 888 891 892
811 812 813 814 813 814 815 814 816 815 816 821 820 829 844 846 848 854 854 853 849 847 840 827 835 847 842 840 848 860 859 848 848 849 843 845 848 854 863 869 875 877 881 874 854 852 852 841 860 882 871 868 877 871 862 866 870 861 854 857 855 847 845 847 849 850 853 848 836 833 841 831 806 817 856 869 862 867 871 873 878 879 881 883 883 886 889 891
810 811 812 815 815 814 815 814 818 817 817 823 820 827 847 851 853 859 857 856 851 843 837 832 840 851 852 847 848 860 863 850 848 850 843 842 846 857 866 868 874 878 881 879 860 856 859 841 848 876 877 869 869 862 853 853 863 866 862 863 861 851 844 844 847 843 838 840 838 837 843 826 803 813 834 840 847 857 862 868 873 874 877 878 879 883 886 889
810 810 812 817 814 814 816 815 817 816 817 829 831 833 851 855 854 860 859 857 854 846 840 840 843 846 853 861 858 861 868 864 856 849 846 849 848 856 872 872 872 875 879 880 866 859 862 848 845 868 879 869 861 865 866 861 862 860 856 858 860 860 858 851 850 854 849 839 836 843 831 804 812 839 840 834 843 849 854 863 866 870 873 874 877 880 882 886
809 808 812 817 814 815 817 814 826 833 828 835 845 848 855 852 851 860 861 859 858 855 851 849 847 845 850 857 857 860 868 867 863 856 852 855 848 851 874 882 878 876 872 869 864 859 859 851 850 864 869 861 868 888 895 890 885 873 863 860 857 857 857 847 851 870 875 855 844 852 830 802 830 862 853 847 850 847 853 859 862 867 870 871 875 877 880 883
808 808 813 817 814 815 814 820 847 859 840 835 847 853 854 852 854 859 859 858 857 856 858 855 854 854 853 853 858 866 866 861 866 863 854 859 859 860 880 891 888 884 873 862 863 869 867 857 855 866 872 873 885 900 902 900 900 891 882 878 871 864 852 836 837 858 878 875 867 869 846 821 847 868 858 858 858 851 854 858 860 865 866 870 874 874 879 881
808 810 815 816 815 816 815 823 845 853 846 851 860 860 857 855 856 857 858 858 856 855 856 857 859 858 857 862 864 865 862 856 861 862 858 865 874 878 889 893 889 886 877 863 863 872 869 857 854 864 874 881 891 900 903 906 903 889 884 887 884 876 865 857 856 856 863 866 863 866 848 826 848 868 860 862 863 857 858 857 859 865 865 869 872 872 877 879
813 815 817 816 815 815 813 814 821 834 851 862 860 858 859 860 859 857 856 857 858 857 853 856 863 861 866 875 868 865 864 853 853 865 867 869 876 886 893 892 889 884 876 871 870 869 861 850 849 855 862 867 874 879 882 892 897 886 882 893 895 890 885 881 879 870 859 852 848 846 831 821 847 867 860 862 864 859 860 859 860 864 864 866 870 872 875 877
812 815 818 818 816 816 818 820 817 827 851 859 851 853 856 857 863 862 858 860 865 864 856 858 868 868 873 879 872 874 876 860 855 867 875 875 879 889 892 891 892 885 879 882 881 873 865 857 850 843 840 841 842 846 857 869 880 883 889 899 899 895 886 870 864 861 853 855 854 835 817 825 855 866 858 859 861 858 859 860 860 862 862 865 868 870 873 876
805 808 815 818 820 821 828 837 829 825 841 845 840 849 852 851 861 866 862 862 866 868 863 863 871 869 869 872 866 869 877 875 870 870 875 878 879 886 892 891 891 887 882 884 883 880 876 874 870 854 839 840 843 858 885 887 874 872 883 893 894 895 890 873 860 851 848 859 856 829 817 831 847 855 858 860 859 857 857 858 861 862 862 864 867 869 872 874
800 801 811 814 817 821 827 837 833 826 831 829 825 840 849 850 858 862 862 863 866 868 866 866 869 860 857 863 860 863 876 881 877 873 878 883 883 887 893 892 890 887 883 882 885 885 871 867 884 881 870 884 891 896 915 908 884 877 879 882 888 893 893 881 861 847 847 850 839 825 827 830 828 839 853 856 857 857 856 856 859 860 861 864 866 868 871 873
801 802 815 815 808 812 817 822 828 829 831 830 833 843 846 847 852 851 856 865 868 866 860 860 864 857 854 858 851 855 874 875 869 874 881 885 887 886 885 888 888 883 884 884 885 886 866 862 893 898 887 910 923 916 921 914 899 899 893 885 887 889 889 880 862 855 851 835 826 839 847 834 823 831 841 847 852 853 852 853 855 858 861 864 866 868 870 871
808 808 822 823 812 818 827 829 830 828 828 834 840 844 842 840 843 848 856 863 863 865 860 849 852 856 858 860 851 850 862 857 850 865 878 882 886 884 879 879 880 882 885 882 885 889 870 867 902 907 889 905 921 919 922 916 902 902 899 893 890 886 884 876 863 865 863 843 840 861 867 850 837 837 840 845 848 848 850 854 856 858 861 863 866 867 867 868
800 798 811 820 822 834 842 839 831 824 830 837 833 836 843 838 837 847 858 853 845 855 862 849 848 861 866 864 855 849 854 851 844 856 871 873 875 880 874 866 872 884 885 879 885 889 873 873 904 905 879 888 913 919 917 913 906 899 893 893 894 889 889 884 874 875 875 862 854 862 865 853 841 839 843 847 849 850 853 855 855 857 858 860 863 863 863 865
791 791 798 803 815 833 838 838 835 822 825 833 826 830 839 835 835 844 853 860 852 848 855 851 849 865 874 869 859 853 857 861 856 859 868 866 864 870 869 864 870 879 881 883 886 883 876 884 904 896 865 871 908 918 909 911 913 901 889 887 890 887 883 878 873 870 865 855 853 858 853 837 828 834 841 844 849 850 849 850 852 853 855 857 858 859 860 861
791 793 795 792 803 828 834 835 836 821 814 822 825 831 836 834 840 839 835 857 871 862 862 863 854 857 865 863 859 858 861 867 868 870 875 874 872 875 874 872 874 873 875 883 886 887 885 880 886 884 861 866 905 919 910 904 884 859 855 859 862 868 870 867 866 863 857 850 847 844 834 823 826 836 838 842 849 849 845 845 846 847 851 854 854 855 856 857